Weather History for Houma, LA

Change the Weather History Date:

Sunday, February 9, 2014

  Actual Average Record
Temperature  
Mean Temperature 59 °F -  
Max Temperature 71 °F 62 °F 82 °F (1932)
Min Temperature 47 °F 40 °F 20 °F (1933)
Degree Days  
Heating Degree Days 6    
Growing Degree Days 9 (Base 50)    
Moisture  
Dew Point 52 °F    
Average Humidity 86    
Maximum Humidity 94    
Minimum Humidity 57    
Precipitation  
Precipitation 0.00 in - - ()
Sea Level Pressure  
Sea Level Pressure 30.11 in    
Wind  
Wind Speed 2 mph (SSE)    
Max Wind Speed 14 mph    
Max Gust Speed -    
Visibility 4 miles    
Events Fog    
Averages and records for this station are not official NWS values.
T = Trace of Precipitation, MM = Missing Value Source: NWS Daily Summary

Daily Weather History Graph

Daily Weather History Graph

Search for Another Location

Airport:

Trip Planner

Search our weather history database for the weather conditions in past years. The results will help you decide how hot, cold, wet, or windy it might be!

Date:

Astronomy

Feb. 09, 2014 Rise Set
Actual Time 6:46 AM CST 5:47 PM CST
Civil Twilight 6:22 AM CST 6:11 PM CST
Nautical Twilight 5:54 AM CST 6:40 PM CST
Astronomical Twilight 5:26 AM CST 7:07 PM CST
Moon 1:34 PM CST (2/9) 2:44 AM CST (2/9)
Length of Visible Light 11h 49m
Length of Day
11h 00m
Waxing Gibbous, 77% of the Moon is Illuminated
Feb 9
Waxing Gibbous
Feb 14
Full
Feb 22
Last Quarter
Mar 1
New
Mar 8
First Quarter

Hourly Weather History & Observations

Time (CST) Temp. Dew Point Humidity Pressure Visibility Wind Dir Wind Speed Gust Speed Precip Events Conditions
12:15 AM 52.7 °F 49.5 °F 89% 30.16 in 5.0 mi Calm Calm - N/A   Mist
12:35 AM 51.4 °F 48.6 °F 90% 30.16 in 4.0 mi Calm Calm - N/A   Mist
12:55 AM 50.4 °F 47.7 °F 90% 30.16 in 3.0 mi Calm Calm - N/A   Mist
1:15 AM 50.0 °F 47.7 °F 92% 30.15 in 3.0 mi SE 3.5 mph - N/A   Mist
1:35 AM 49.3 °F 47.3 °F 93% 30.14 in 2.5 mi Calm Calm - N/A   Mist
1:55 AM 49.5 °F 47.3 °F 92% 30.13 in 2.0 mi Calm Calm - N/A   Mist
2:15 AM 48.7 °F 46.4 °F 92% 30.13 in 0.5 mi Calm Calm - N/A Fog Fog
2:35 AM 48.2 °F 46.0 °F 92% 30.12 in 2.0 mi Calm Calm - N/A   Mist
2:55 AM 49.1 °F 47.1 °F 93% 30.13 in 3.0 mi Calm Calm - N/A   Mist
3:15 AM 49.6 °F 47.7 °F 93% 30.13 in 3.0 mi Calm Calm - N/A   Mist
3:35 AM 49.6 °F 47.5 °F 92% 30.12 in 2.0 mi Calm Calm - N/A   Mist
3:55 AM 48.9 °F 46.9 °F 93% 30.11 in 0.5 mi Calm Calm - N/A Fog Fog
4:15 AM 49.5 °F 47.5 °F 93% 30.12 in 3.0 mi Calm Calm - N/A   Mist
4:35 AM 49.8 °F 47.8 °F 93% 30.11 in 3.0 mi Calm Calm - N/A   Mist
4:55 AM 47.5 °F 45.3 °F 92% 30.11 in 1.2 mi Calm Calm - N/A   Mist
5:50 AM 51.8 °F 50.0 °F 94% 30.13 in 5.0 mi Calm Calm - N/A   Scattered Clouds
7:05 AM 50.0 °F 48.2 °F 94% 30.14 in 5.0 mi Calm Calm - N/A   Mostly Cloudy
7:50 AM 55.4 °F 51.8 °F 88% 30.15 in 7.0 mi Calm Calm - N/A   Mostly Cloudy
8:50 AM 60.8 °F 51.8 °F 72% 30.17 in 7.0 mi ESE 3.5 mph - N/A   Mostly Cloudy
9:50 AM 66.2 °F 55.4 °F 68% 30.17 in 7.0 mi SE 5.8 mph - N/A   Mostly Cloudy
10:50 AM 69.8 °F 55.4 °F 60% 30.17 in 7.0 mi SSE 4.6 mph - N/A   Mostly Cloudy
11:50 AM 71.6 °F 55.4 °F 57% 30.14 in 7.0 mi SSE 3.5 mph - N/A   Mostly Cloudy
12:50 PM 71.6 °F 55.4 °F 57% 30.11 in 7.0 mi SSE 8.1 mph - N/A   Scattered Clouds
1:50 PM 71.6 °F 57.2 °F 60% 30.09 in 7.0 mi SSE 11.5 mph - N/A   Scattered Clouds
2:50 PM 71.6 °F 57.2 °F 60% 30.08 in 7.0 mi SSE 13.8 mph - N/A   Scattered Clouds
3:55 PM 69.8 °F 57.2 °F 64% 30.07 in 7.0 mi SSE 13.8 mph - N/A   Scattered Clouds
4:55 PM 66.2 °F 57.2 °F 73% 30.08 in 7.0 mi SSE 13.8 mph - N/A   Scattered Clouds
5:55 PM 62.6 °F 57.2 °F 82% 30.08 in 7.0 mi SSE 6.9 mph - N/A   Scattered Clouds
6:15 PM 62.1 °F 57.6 °F 85% 30.08 in 7.0 mi South 4.6 mph - N/A   Unknown
6:35 PM 60.8 °F 57.2 °F 88% 30.09 in 7.0 mi South 4.6 mph - N/A   Unknown
6:55 PM 60.8 °F 57.6 °F 89% 30.09 in 7.0 mi South 5.8 mph - N/A   Unknown
7:00 PM 60.8 °F 57.2 °F 88% 30.09 in 7.0 mi SSE 6.9 mph - N/A   Scattered Clouds
7:15 PM 60.3 °F 57.0 °F 89% 30.09 in 7.0 mi SSE 3.5 mph - N/A   Unknown
7:35 PM 59.9 °F 57.0 °F 90% 30.09 in 7.0 mi South 4.6 mph - N/A   Unknown
7:55 PM 59.0 °F 56.3 °F 91% 30.10 in 4.0 mi SSW 3.5 mph - N/A   Mist
8:15 PM 59.0 °F 56.3 °F 91% 30.10 in 3.0 mi South 3.5 mph - N/A   Mist
8:35 PM 58.3 °F 56.1 °F 93% 30.10 in 2.5 mi South 3.5 mph - N/A   Mist
8:55 PM 58.1 °F 55.6 °F 91% 30.11 in 1.5 mi Calm Calm - N/A   Mist
9:15 PM 57.7 °F 55.6 °F 92% 30.11 in 0.2 mi Calm Calm - N/A Fog Fog
9:35 PM 57.4 °F 55.2 °F 92% 30.11 in 0.5 mi Calm Calm - N/A Fog Fog
9:55 PM 54.7 °F 52.5 °F 92% 30.10 in 0.2 mi Calm Calm - N/A Fog Fog
10:15 PM 54.0 °F 51.8 °F 92% 30.10 in 0.2 mi Calm Calm - N/A Fog Fog
10:35 PM 54.1 °F 52.2 °F 93% 30.10 in 0.2 mi SSE 4.6 mph - N/A Fog Fog
10:55 PM 54.5 °F 52.5 °F 93% 30.10 in 0.2 mi Calm Calm - N/A Fog Fog
11:15 PM 54.5 °F 52.7 °F 94% 30.10 in 0.2 mi Calm Calm - N/A Fog Fog
11:35 PM 54.0 °F 52.0 °F 93% 30.09 in 0.2 mi Calm Calm - N/A Fog Fog
11:55 PM 52.9 °F 50.9 °F 93% 30.09 in 0.2 mi Calm Calm - N/A Fog Fog